Flag for Angola Weather past 2 weeks in Lubango, Angola

Now
81 °F

Passing clouds.


Feels Like: 86 °F
Forecast: 54 / 80 °F
Wind: 7 mph from West

Location: Luanda Airport

Current Time: Mar 3, 2015 at 8:48:26 PM

Latest Report: Mar 3, 2015 at 7:00 PM


Visibility: N/A

Pressure: 29.83 "Hg

Humidity: 84%

Dew point: 75 °F

Location of LubangoLocation

Historic Weather in Lubango — Graph

°F

Lubango temperature yesterday

Maximum temperature yesterday: 88 °F (at 9:00 AM)
Minimum temperature yesterday: 79 °F (at 5:00 AM)
Average temperature yesterday: 82 °F

Past Weeks' High & Low Weather Summary

 TemperatureHumidityPressure
High91 °F (Feb 17, 4:00 PM)100% (Feb 24, 7:00 AM)30.21 "Hg (Feb 24, 7:00 AM)
Low59 °F (Feb 24, 7:00 AM)49% (Feb 17, 4:00 PM)29.74 "Hg (Feb 18, 5:00 PM)
Average81 °F79%29.84 "Hg
* Reported Feb 16 7:00 PM — Mar 3 7:00 PM, Lubango, Weather by CustomWeather, © 2015

Note: Actual official high and low records may vary slightly from our data, if they occured in-between our weather recording intervals... More about our weather records

Advertising

Lubango weather history for previous 24 hours

 ConditionsComfort  
Time TempWeatherWind HumidityBarometerVisibility
7:00 PM
Tue, Mar 3
81 °FPassing clouds.7 mph84%29.83 "HgN/A
5:00 PM84 °FPartly sunny.7 mph74%29.80 "HgN/A
4:00 PM82 °FPartly sunny.7 mph79%29.80 "HgN/A
3:00 PM82 °FPartly sunny.6 mph79%29.83 "HgN/A
2:00 PM82 °FPartly sunny.6 mph79%29.86 "HgN/A
12:00 PM84 °FPartly sunny.5 mph74%29.89 "HgN/A
11:00 AM82 °FPartly sunny.5 mph79%29.89 "HgN/A
10:00 AM81 °FPartly sunny.5 mph84%29.89 "HgN/A
8:00 AM79 °FBroken clouds.3 mph89%29.89 "HgN/A
7:00 AM77 °FBroken clouds.3 mph94%29.86 "HgN/A
6:00 AM77 °FPartly cloudy.5 mph94%29.83 "HgN/A
5:00 AM77 °FPartly cloudy.5 mph94%29.83 "HgN/A
4:00 AM77 °FPassing clouds.2 mph94%29.80 "HgN/A
3:00 AM77 °FPassing clouds.2 mph94%29.83 "HgN/A
1:00 AM77 °FPassing clouds.5 mph94%29.86 "HgN/A
12:00 AM77 °FPassing clouds.7 mph94%29.89 "Hg6 mi
11:00 PM
Mon, Mar 2
79 °FRain. Partly cloudy.2 mph89%29.92 "Hg6 mi
9:00 PM79 °FPartly cloudy.7 mph89%29.89 "HgN/A
Weather by CustomWeather, © 2015

See weather overviewHow to use our weather pages